Location: Vihti�l�
(61.3833°N, 23.0667°E)
Time: 04:12:12
(UTC+00:00)

USA 229 DEB - Pass Details

Date: 29 November 2020
Orbit: 965 x 1247 km, 63.4° (Epoch: 16 January)

Event Time Altitude Azimuth Distance (km) Brightness Sun altitude
Exits shadow 03:54:57 36° 290° (WNW) 1,672 4.2 -21.3°
Maximum altitude 03:58:08 81° 13° (NNE) 1,147 3.8 -20.9°
Drops below altitude 10° 04:05:37 10° 102° (ESE) 3,110 7.3 -20.0°
Sets 04:08:26 0° 103° (ESE) 4,106 8.4 -19.7°
